DW7306 Weather Reports


Display with metric or nautical units.
time (UTC)temp
F
wind
direction
speed
MPH
gust
MPH
rain 1hr
in
rain 24hr
in
rain mn
in
humidity
%
barometer
mb
20190819181000 57 86 0.0 0.0 0.79 0.00 0.79 85 1014.1
20190819180000 59 157 0.0 0.0 0.70 0.00 0.70 86 1014.5
20190819175000 58 233 0.0 0.0 0.57 0.00 0.57 81 1014.7
20190819174000 58 180 0.0 0.0 0.31 0.00 0.31 75 1014.9
20190819173000 60 141 0.0 0.0 0.00 0.00 0.00 58 1015.5
20190819172000 62 169 0.0 0.0 0.00 0.00 0.00 51 1015.5
20190819171000 64 183 0.0 0.0 0.00 0.00 0.00 54 1015.7
20190819170000 63 176 0.0 0.0 0.00 0.00 0.00 58 1015.7
20190819165000 62 185 1.0 0.0 0.00 0.00 0.00 55 1015.7
20190819164000 63 227 0.0 0.0 0.00 0.00 0.00 56 1015.7
20190819163000 63 94 0.0 0.0 0.00 0.00 0.00 55 1015.8
20190819162000 60 136 4.0 0.0 0.00 0.00 0.00 52 1015.6
20190819161000 61 128 2.0 0.0 0.00 0.00 0.00 48 1015.7
20190819160000 63 100 2.0 0.0 0.00 0.00 0.00 49 1015.5
20190819155000 64 205 0.0 0.0 0.00 0.00 0.00 49 1015.7
20190819154000 66 79 0.0 0.0 0.00 0.00 0.00 53 1015.3
20190819153000 61 149 1.0 0.0 0.00 0.00 0.00 47 1015.6
20190819152000 64 162 0.0 0.0 0.00 0.00 0.00 44 1015.8
20190819151000 64 171 2.0 0.0 0.00 0.00 0.00 46 1016.0
20190819150001 62 117 2.0 0.0 0.00 0.00 0.00 43 1015.6
20190819145000 63 71 1.0 0.0 0.00 0.00 0.00 48 1015.4
20190819144000 60 120 4.0 0.0 0.00 0.00 0.00 42 1015.4
20190819143000 64 78 0.0 0.0 0.00 0.00 0.00 46 1015.2
20190819142000 61 139 2.0 0.0 0.00 0.00 0.00 44 1015.0
20190819141001 64 195 0.0 0.0 0.00 0.00 0.00 44 1014.9
20190819140000 63 91 0.0 0.0 0.00 0.00 0.00 54 1014.8
20190819135000 60 189 0.0 0.0 0.00 0.00 0.00 53 1014.8
20190819134000 63 135 0.0 0.0 0.00 0.00 0.00 49 1014.5
20190819133000 62 140 0.0 0.0 0.00 0.00 0.00 48 1014.5
20190819132001 61 112 0.0 0.0 0.00 0.00 0.00 50 1013.9
20190819131000 62 79 3.0 0.0 0.00 0.00 0.00 44 1013.8
20190819130000 61 328 0.0 0.0 0.00 0.00 0.00 58 1013.8
20190819125000 60 36 0.0 0.0 0.00 0.00 0.00 71 1013.6
20190819124000 56 351 0.0 0.0 0.00 0.00 0.00 80 1013.7
20190819123001 55 7 0.0 0.0 0.00 0.00 0.00 85 1013.8
20190819122000 55 22 4.0 0.0 0.00 0.00 0.00 90 1013.9
20190819121000 54 39 0.0 0.0 0.00 0.00 0.00 91 1014.0
20190819120000 54 33 0.0 0.0 0.00 0.00 0.00 92 1014.2
20190819115000 53 310 0.0 0.0 0.00 0.00 0.00 91 1014.0
20190819114000 54 310 0.0 0.0 0.00 0.00 0.00 91 1014.1
20190819113000 53 310 0.0 0.0 0.00 0.00 0.00 88 1014.1
20190819112000 53 310 0.0 0.0 0.00 0.00 0.00 86 1013.8
20190819111000 53 310 0.0 0.0 0.00 0.00 0.00 84 1013.7
20190819110000 54 310 0.0 0.0 0.00 0.00 0.00 82 1013.7
20190819105000 53 307 2.0 0.0 0.00 0.00 0.00 80 1013.5
20190819104000 54 339 2.0 0.0 0.00 0.00 0.00 82 1013.4
20190819103000 54 287 1.0 0.0 0.00 0.00 0.00 83 1013.4
20190819102000 54 304 0.0 0.0 0.00 0.00 0.00 84 1013.4
20190819101000 54 325 0.0 0.0 0.00 0.00 0.00 84 1013.6
20190819100001 54 312 3.0 0.0 0.00 0.00 0.00 88 1013.6
20190819095000 54 339 0.0 0.0 0.00 0.00 0.00 87 1013.5
20190819094000 55 252 2.0 0.0 0.00 0.00 0.00 87 1013.5
20190819093000 54 330 0.0 0.0 0.00 0.00 0.00 84 1013.5
20190819092000 54 272 0.0 0.0 0.00 0.00 0.00 80 1013.4
20190819091001 54 275 0.0 0.0 0.00 0.00 0.00 80 1013.5
20190819090000 53 303 0.0 0.0 0.00 0.00 0.00 77 1013.6
20190819085000 54 283 0.0 0.0 0.00 0.00 0.00 74 1013.7
20190819084000 54 324 0.0 0.0 0.00 0.00 0.00 68 1013.7
20190819083000 55 293 0.0 0.0 0.00 0.00 0.00 68 1013.6
20190819082001 55 322 0.0 0.0 0.00 0.00 0.00 67 1013.7
20190819081000 55 288 0.0 0.0 0.00 0.00 0.00 62 1013.7
20190819080000 57 279 2.0 0.0 0.00 0.00 0.00 55 1013.6
20190819075000 58 12 5.0 0.0 0.00 0.00 0.00 54 1013.6
20190819074001 57 322 6.0 0.0 0.00 0.00 0.00 54 1013.7
20190819073001 57 265 7.0 0.0 0.00 0.00 0.00 53 1013.9
20190819072000 58 277 9.0 0.0 0.00 0.00 0.00 53 1014.0
20190819071000 58 338 8.0 0.0 0.00 0.00 0.00 53 1013.7
20190819070000 58 349 9.0 0.0 0.00 0.00 0.00 54 1013.6
20190819065000 57 10 6.0 0.0 0.00 0.00 0.00 56 1013.8
20190819064000 57 308 4.0 0.0 0.00 0.00 0.00 57 1013.7
20190819063000 57 329 7.0 0.0 0.00 0.00 0.00 58 1014.0
20190819062000 57 72 2.0 0.0 0.00 0.00 0.00 58 1013.8
20190819061000 57 72 4.0 0.0 0.00 0.00 0.00 57 1014.2
20190819060000 58 55 2.0 0.0 0.00 0.00 0.00 55 1014.2
20190819055000 58 346 7.0 0.0 0.00 0.00 0.00 55 1014.2
20190819054000 58 23 4.0 0.0 0.00 0.00 0.00 56 1014.0
20190819053000 58 9 7.0 0.0 0.00 0.00 0.00 58 1014.3
20190819052001 58 1 6.0 0.0 0.00 0.00 0.00 59 1014.5
20190819051001 58 73 6.0 0.0 0.00 0.00 0.00 58 1014.5
20190819050001 58 326 4.0 0.0 0.00 0.00 0.00 56 1014.5
20190819045000 58 59 6.0 0.0 0.00 0.00 0.00 56 1014.5
20190819044000 57 32 0.0 0.0 0.00 0.00 0.00 57 1014.5
20190819043000 58 58 4.0 0.0 0.00 0.00 0.00 56 1014.7
20190819042001 59 5 6.0 0.0 0.00 0.00 0.00 57 1014.5
20190819041000 59 72 5.0 0.0 0.00 0.00 0.00 64 1014.3
20190819040000 58 46 4.0 0.0 0.00 0.00 0.00 86 1014.6
20190819035000 57 50 0.0 0.0 0.00 0.00 0.00 93 1014.5
20190819034000 56 227 0.0 0.0 0.00 0.00 0.00 95 1014.9
20190819033000 56 82 0.0 0.0 0.00 0.00 0.00 95 1014.7
20190819032000 56 82 0.0 0.0 0.00 0.00 0.00 95 1014.7
20190819031000 55 39 0.0 0.0 0.00 0.00 0.00 95 1014.8
20190819030000 55 72 5.0 0.0 0.00 0.00 0.00 95 1014.4
20190819025000 56 82 0.0 0.0 0.00 0.00 0.00 95 1014.5
20190819024000 57 91 2.0 0.0 0.00 0.00 0.00 95 1014.6
20190819023000 57 91 0.0 0.0 0.00 0.00 0.00 95 1014.3
20190819022000 57 91 0.0 0.0 0.00 0.00 0.00 95 1014.2
20190819021000 57 98 2.0 0.0 0.00 0.00 0.00 95 1014.1
20190819020000 57 68 0.0 0.0 0.00 0.00 0.00 95 1014.0
20190819015000 57 48 1.0 0.0 0.00 0.00 0.00 95 1013.8
20190819014000 57 117 0.0 0.0 0.00 0.00 0.00 95 1013.8
20190819013000 57 101 0.0 0.0 0.00 0.00 0.00 95 1013.8
20190819012000 57 101 0.0 0.0 0.00 0.00 0.00 95 1013.7
20190819011000 57 101 0.0 0.0 0.00 0.00 0.00 95 1013.7
20190819010000 57 102 0.0 0.0 0.00 0.00 0.00 95 1013.7
20190819005000 57 83 0.0 0.0 0.00 0.00 0.00 94 1013.7
20190819004000 57 110 3.0 0.0 0.00 0.00 0.00 94 1013.6
20190819003000 57 73 2.0 0.0 0.00 0.00 0.00 94 1013.7
20190819002000 58 59 0.0 0.0 0.00 0.00 0.00 93 1013.7
20190819001000 58 54 0.0 0.0 0.00 0.00 0.00 93 1013.7
20190819000000 58 78 0.0 0.0 0.00 0.00 0.00 92 1013.7
20190818235000 58 92 0.0 0.0 0.00 0.00 0.00 91 1013.6
20190818234000 58 68 0.0 0.0 0.00 0.00 0.00 90 1013.8
20190818233000 58 75 0.0 0.0 0.00 0.00 0.00 88 1013.6
20190818232000 59 111 0.0 0.0 0.00 0.00 0.00 87 1013.7
20190818231000 59 111 0.0 0.0 0.00 0.00 0.00 85 1013.6
20190818230000 59 111 0.0 0.0 0.00 0.00 0.00 82 1013.6
20190818225000 59 135 0.0 0.0 0.00 0.00 0.00 80 1013.7
20190818224000 60 135 0.0 0.0 0.00 0.00 0.00 78 1013.6
20190818223000 60 102 0.0 0.0 0.00 0.00 0.00 78 1013.5
20190818222000 60 102 0.0 0.0 0.00 0.00 0.00 79 1013.5
20190818221000 60 76 0.0 0.0 0.00 0.00 0.00 80 1013.6
20190818220001 60 71 0.0 0.0 0.00 0.00 0.00 77 1013.6
20190818215000 60 100 0.0 0.0 0.00 0.00 0.00 72 1013.5
20190818214000 61 177 1.0 0.0 0.00 0.00 0.00 66 1013.6
20190818213000 61 124 0.0 0.0 0.00 0.00 0.00 65 1013.6
20190818212001 62 70 0.0 0.0 0.00 0.00 0.00 66 1013.6
20190818211000 61 59 0.0 0.0 0.00 0.00 0.00 67 1013.6
20190818210000 61 74 1.0 0.0 0.00 0.00 0.00 60 1013.6
20190818205000 64 183 0.0 0.0 0.00 0.00 0.00 57 1013.6
20190818204001 62 166 0.0 0.0 0.00 0.00 0.00 59 1013.6
20190818203000 62 255 0.0 0.0 0.00 0.00 0.00 69 1013.6
20190818202000 61 221 0.0 0.0 0.00 0.00 0.00 73 1013.5
20190818201001 60 160 0.0 0.0 0.00 0.00 0.00 73 1013.7
20190818200000 61 130 0.0 0.0 0.00 0.00 0.00 69 1013.7
20190818195000 61 205 0.0 0.0 0.00 0.00 0.00 68 1013.7
20190818194000 61 123 0.0 0.0 0.00 0.00 0.00 68 1013.9
20190818193000 61 206 0.0 0.0 0.00 0.00 0.00 64 1013.9
20190818192000 63 186 0.0 0.0 0.00 0.00 0.00 62 1014.0
20190818191000 65 173 0.0 0.0 0.00 0.00 0.00 74 1013.9
20190818190001 59 86 0.0 0.0 0.00 0.00 0.00 72 1013.9
20190818185000 60 189 1.0 0.0 0.00 0.00 0.00 69 1014.1
20190818184000 60 121 0.0 0.0 0.00 0.00 0.00 66 1014.2
20190818183000 60 128 4.0 0.0 0.00 0.00 0.00 60 1014.4
20190818182002 64 145 0.0 0.0 0.00 0.00 0.00 58 1014.3